Weather in Nikolaevka

Ukraine / Mykolaiv District     47°22′18″N   31°15′28″E
temp.,
°C
wind,
m/s
gust,
m/s
humid.,
%
clouds,
%
prec.,
mm/h
press.,
hPa
HPBL,
m
16 april, fri
fri1600:00+6wsw6990100 0.0 1013356
03:00+6wsw6991100 0.1 1013373
06:00+5wsw5991100 0.1 1014479
09:00+5wsw6887100 0.1 1015742
12:00+6wsw6882100 0.1 1015881
15:00+6w71074100 0.1 10161058
18:00+8w5868100 0.1 10161087
21:00+6w3578100 0.1 1018158
17 april, sat
sat1700:00+6ssw468374 0.1 1018174
03:00+5wnw228156 0.1 101921
06:00+4nne128728 0.0 102010
09:00+8se22705 0.0 1020420
12:00+13s344820 0.0 10201443
15:00+15sw443771 0.0 10192070
18:00+13s764646 0.0 1019704
21:00+8s4862100 0.0 1020177
18 april, sun
sun1800:00+7ssw227156 0.0 101928
03:00+6ssw227284 0.0 101916
06:00+5ne007278 0.0 101910
09:00+10sse23555 0.0 1019390
12:00+13ese224399 0.0 10181378
15:00+16ese2236100 0.0 10171851
18:00+16e233710 0.0 10161917
21:00+12se3349100 0.0 101737
19 april, mon
mon1900:00+11sw2354100 0.0 101650
03:00+9sw237191 0.0 101550
06:00+10n1163100 0.0 101515
09:00+11ene2367100 0.0 1014233
12:00+13e566298 0.0 1013904
15:00+15ene675140 0.0 10091515
18:00+13ese6971100 0.4 1007921
21:00+10ene81494100 5.8 1003783
20 april, tue
tue2000:00+11e81396100 9.1 999736
03:00+10sse61096100 20.2 996738
06:00+9sse4789100 0.4 994691
09:00+8ese4689100 1.0 993523
12:00+10nne3376100 0.2 992861
15:00+10wnw81086100 0.5 995796
18:00+8wnw81588100 0.6 10001336
21:00+9w81479100 0.8 1004925